17:21
Airports
History
Links
Donate
Help keep this website running!
PayPal
Bitcoin
This page is community maintained. The information is intended for PC simulator navigation or reference.
Always use approved charts for navigation.
NZKF
Kaipara Flats
Kaipara Flats (NZKF)
Kaipara Flats, Auckland, New Zealand (981)
4
Lat/Lng:36° 24' 22.97" S / 174° 35' 13.99" E
-36.40638 / 174.587219
Elevation:110'ft / 34mMSL
ID / ICAO:NZKF
Runways:1
Longest:07-25
Grass 837m / 2,746ft
Nearby Weather07:00 GMT 2017-12-14
Nearby weather at NZWP, Whenuapai located 26.5 nautical miles from NZKF
Altimeter: 29.91
Visibility: statute miles
Wind: 6 knots (from 020°)
Temp: 21°c / 70°f
Humidity: 56.4%

METAR: NZWP 140700Z 02006KT 30KM SCT060 21/12 Q1013 NOSIG

(Powered by phpweather)
Runway 07 / 25
Dimensions:836.9 x 30.5m 2746' x 100'ft
Surface:Grass
Runway 07 [A]Runway 25 [B]
Heading:089°TH 269°TH
Lat:
Lng:
36° 24' 23.21"S
174° 34' 57"E
36° 24' 22.73"S
174° 35' 30.98"E
User Notes and Comments
36° 24' 22.97" S / 174° 35' 13.99" E
Distance To
Airport ID:
Nearby Airports
(U) Springhill 5.9 NM
NZSL NNW 342°
(C) North Shore 17.7 NM
NZNE SSE 167°
4 Parakai 18.9 NM
NZPI SSW 206°
(C) Whenuapai 26.5 NM
NZWP ( WX ) S 174°
(C) Hobsonville 27.0 NM
NZHB S 171°
4 Pikes Point 38.3 NM
NZPK SSE 160°
4 Reeve 39.3 NM
NZRV SE 135°
VFR Chart
Flight Planning at SkyVector.com